Tracking 31027 objects as of 19-Jul-2025
HD Live streaming from Space Station
objects crossing your sky now

OPS 1427 (OV3-4)

Track OPS 1427 (OV3-4) now!
10-day predictions
OPS 1427 (OV3-4) is classified as:


NORAD ID: 2201
Int'l Code: 1966-052A
Perigee: 649.4 km
Apogee: 4,689.0 km
Inclination: 40.9 °
Period: 142.6 minutes
Semi major axis: 9040 km
RCS: 0.817 m2 (medium)
Launch date: June 10, 1966
Source: United States (US)
Launch site: WALLOPS ISLAND (WLPIS)
Your satellite tracking list
OBJECT A
Track 1 satellite(s)




NASA's NSSDC Master Catalog

Two Line Element Set (TLE):
1  2201U 66052A   25199.88052377  .00000445  00000-0  68756-3 0  9998
2  2201  40.8878  20.6341 2234250 146.9973 229.2433 10.10028098178173
Source of the keplerian elements: AFSPC